{"data":{"norad_id":59327,"epoch":"2026-09-21T03:25:53.501376Z","epoch_age_seconds":106728,"freshness":"FRESH","line1":"1 59327U 24057H   26264.14298034 -.00000338  00000+0 -27649-5 0  9993","line2":"2 59327  43.0005 163.0388 0000993 268.5648  91.5090 15.27573955139735","mean_motion":15.27573955,"eccentricity":9.93e-5,"inclination_deg":43.0005,"raan_deg":163.0388,"arg_perigee_deg":268.5648,"mean_anomaly_deg":91.509,"bstar":-2.7649e-6,"rev_number":13973,"period_min":94.267121751235,"perigee_km":482.38587942726,"apogee_km":483.74851458079,"semimajor_km":6861.204197004,"source":"CELESTRAK","updated_at":"2026-09-22T09:00:48.899134Z"}}